Вернуться в каталог

COSMOS 839 DEB

АктивенUNKNOWN
NORAD 10618·DEBRIS·🇷🇺 Russia

Запущен Jul 8, 1976 с Plesetsk Cosmodrome

Loading…

Ближайшие Пролёты (ближайшие 24 часа)

TLE

СвежийSource: Space-Track

Эпоха: Sep 13, 2026, 16:51 UTC

1 10618U 76067AS  26256.70219980 -.00000028  00000-0  85630-4 0  9996
2 10618  65.8418  63.0493 0728662 204.7610 166.6485 12.38960199268411

Отслеживайте COSMOS 839 DEB в реальном времени с AllMySat

Download on the App Store